Regional Weather Roundup
Issued by NWS

Home | Current Version | Previous Version | Graphics & Text | Print | Product List | Glossary On
Versions: 1 2 3 4 5 6 7 8 9 10 11 12 13 14 15 16 17 18 19 20 21 22 23 24 25 26 27 28 29 30 31 32 33 34 35 36 37 38 39 40 41 42 43 44 45 46 47 48 49 50
175
ASUS43 KIND 261859
RWRIN

WEATHER ROUNDUP FOR INDIANA
NATIONAL WEATHER SERVICE INDIANAPOLIS IN
300 PM EDT SUN MAR 26 2017

NOTE: "FAIR" INDICATES FEW OR NO CLOUDS BELOW 12,000 FEET WITH NO
SIGNIFICANT WEATHER AND/OR OBSTRUCTIONS TO VISIBILITY.

* - STATION DOES NOT REPORT WEATHER SUCH AS PRECIPITATION OR FOG.

+ - STATION NOT QUALITY CONTROLLED BY THE NATIONAL WEATHER SERVICE.
    USE DATA WITH CAUTION...ESPECIALLY DEWPOINT AND RELATIVE
    HUMIDITY OBSERVATIONS.

INZ001>003-010>013-019-020-262000-
NORTHWEST INDIANA

CITY           SKY/WX    TMP DP  RH WIND       PRES   REMARKS
GARY /AIRPORT/ CLOUDY    64  54  68 SW14      29.82F
MONTICELLO +   CLOUDY    59  53  79 SW9       29.84F
VALPARAISO     RAIN      59  55  87 S8        29.84S FOG

$$

LMZ046-743>745-262000-
SOUTHERN LAKE MICHIGAN

STATION/POSITION TIME  TEMP    WIND        PRES    WAVE
                       AIR SEA DIR/SP/G            HT
                 (UTC) (F)     (DEG/KT/KT) (MB)    (FT)
BURNS HARBOR     1840   58     220/ 10/ 21 1010.5F
MICHIGAN CITY    1830   58     170/  8/ 10   N/A

$$

INZ004-005-014>016-021>024-262000-
NORTH CENTRAL INDIANA

CITY           SKY/WX    TMP DP  RH WIND       PRES   REMARKS
ELKHART        PTSUNNY   59  54  82 SE9       29.85F
GOSHEN         CLOUDY    59  52  77 SE10      29.86F
SOUTH BEND     HVY RAIN  56  32  40 S5        29.86F VSB 3/4

$$

INZ006>009-017-018-025>027-262000-
NORTHEAST INDIANA

CITY           SKY/WX    TMP DP  RH WIND       PRES   REMARKS
ANGOLA *+      CLOUDY    50  50 100 S6        29.89F
FORT WAYNE     CLOUDY    62  55  77 S14       29.87F
KENDALLVILLE + CLOUDY    52  51  95 S7        29.89F FOG

$$

INZ028-029-035-036-043>045-051>053-262000-
WEST CENTRAL INDIANA

CITY           SKY/WX    TMP DP  RH WIND       PRES   REMARKS
CRAWFORDSVL +  LGT RAIN  55  55 100 SW14      29.87S
GREENCASTLE +  CLOUDY    59  52  77 SW8       29.89S
LAFAYETTE      CLOUDY    61  52  72 SW14G24   29.85S
TERRE HAUTE    CLOUDY    61  52  72 SW12      29.88F

$$

INZ030>032-037>040-046>048-054>057-064-065-262000-
CENTRAL INDIANA

CITY           SKY/WX    TMP DP  RH WIND       PRES   REMARKS
CP ATTERBURY + CLOUDY    59  54  82 W6        29.90S
INDIANAPOLIS   CLOUDY    60  55  83 S14       29.88F
-EAGLE CREEK   CLOUDY    63  54  72 SW8       29.87F
KOKOMO +       LGT RAIN  61  53  75 S18G26    29.87S
SHELBYVILLE    PTSUNNY   65  53  65 S14       29.87F

$$

INZ033-034-041-042-049-050-058-059-262000-
EAST CENTRAL INDIANA

CITY           SKY/WX    TMP DP  RH WIND       PRES   REMARKS
MUNCIE         CLOUDY    63  54  72 S13       29.88F
RICHMOND +     CLOUDY    61  55  82 S14       29.93F

$$

INZ060-061-067>069-081>083-085>088-262000-
SOUTHWEST INDIANA

CITY           SKY/WX    TMP DP  RH WIND       PRES   REMARKS
EVANSVILLE     PTSUNNY   65  54  67 S16       29.91F
HUNTINGBURG *+ LGT RAIN  58  56  93 SW8       29.91F

$$

INZ062-063-066-070>080-084-089>092-262000-
SOUTH CENTRAL AND SOUTHEAST INDIANA

CITY           SKY/WX    TMP DP  RH WIND       PRES   REMARKS
BLOOMINGTON    CLOUDY    60  54  80 SW12      29.90S
MADISON *+     CLOUDY    66  54  63 S16       29.92F

$$





USA.gov is the U.S. government's official web portal to all federal, state and local government web resources and services.